SCP
0 0 0 0 0 0 0 0 0 0 0 0 0 0 0 0 0 0 0 0 0 0 0 0 0 0 0 0 0 0 0 0 0 0 0 0 0 0 0 0 0 0 0
0 0 0 0 0 0 0 0 0 0 0 0 0 0 0 0 0 0 0 0 0 0 0 0 0 0 0 0 0 0 0 0 0 0 0 0 0 0 0 0 0 0 0
0 0 0 0 0 0 0 0 0 0 0 0 0 0 0 0 0 0 0 0 0 0 0 0 0 0 0 0 0 0 0 0 0 0 0 0 0 0 0 0 0 0 0
0 0 0 0 0 0 0 0 0 0 0 0 0 0 0 0 0 0 0 0 0 0 0 0 0 0 0 0 0 0 0 0 0 0 0 0 0 0 0 0 0 0 0
0 0 0 0 0 0 0 0 0 0 0 0 0 0 0 0 0 0 0 0 0 0 0 0 0 0 0 0 0 0 0 0 0 0 0 0 0 0 0 0 0 0 0
0 0 0 0 0 0 0 0 0 0 0 0 0 0 0 0 0 0 0 0 0 0 0 0 0 0 0 0 0 0 0 0 0 0 0 0 0 0 0 0 0 0 0
0 0 0 0 0 0 0 0 0 0 0 0 0 0 0 0 0 0 0 0 0 0 0 0 0 0 0 0 0 0 0 0 0 0 0 0 0 0 0 0 0 0 0
0 0 0 0 0 0 0 0 0 0 0 0 0 0 0 0 0 0 0 0 0 0 0 0 0 0 0 0 0 0 0 0 0 0 0 0 0 0 0 0 0 0 0
0 0 0 0 0 0 0 0 0 0 0 0 0 0 0 0 0 0 0 0 0 0 0 0 0 0 0 0 0 0 0 0 0 0 0 0 0 0 0 0 0 0 0
0 0 0 0 0 0 0 0 0 0 0 0 0 0 0 0 0 0 0 0 0 0 0 0 0 0 0 0 0 0 0 0 0 0 0 0 0 0 0 0 0 0 0
0 0 0 0 0 0 0 0 0 0 0 0 0 0 0 0 0 0 0 0 0 0 0 0 0 0 0 0 0 0 0 0 0 0 0 0 0 0 0 0 0 0 0
0 0 0 0 0 0 0 0 0 0 0 0 0 0 0 0 0 0 0 0 0 0 0 0 0 0 0 0 0 0 0 0 0 0 0 0 0 0 0 0 0 0 0
0 0 0 0 0 0 0 0 0 0 0 0 0 0 0 0 0 0 0 0 0 0 0 0 0 0 0 0 0 0 0 0 0 0 0 0 0 0 0 0 0 0 0
0 0 0 0 0 0 0 0 0 0 0 0 0 0 0 0 0 0 0 0 0 0 0 0 0 0 0 0 0 0 0 0 0 0 0 0 0 0 0 0 0 0 0
0 0 0 0 0 0 0 0 0 0 0 0 0 0 0 0 0 0 0 0 0 0 0 0 0 0 0 0 0 0 0 0 0 0 0 0 0 0 0 0 0 0 0
0 0 0 0 0 0 0 0 0 0 -0 0 0 0 0 0 0 0 0 0 0 0 0 0 0 0 0 0 0 0 0 0 0 0 0 0 0 0 0 0 0 0 0
0 0 0 0 0 0 0 0 0 0 0 0 -0 0 0 0 0 0 0 0 0 0 0 0 0 0 0 0 0 0 0 0 0 0 0 0 0 0 0 0 0 0 0
0 0 0 0 0 0 0 0 0 0 0 0 0 0 0 0 0 0 0 0 0 0 0 0 0 0 0 0 0 0 0 0 0 0 0 0 0 0 0 0 0 0 0
0 0 0 0 0 0 0 0 0 0 0 0 0 0 0 0 0 0 0 0 0 0 0 0 0 0 0 0 0 0 0 0 0 0 0 0 0 0 0 0 0 0 0
0 0 0 0 0 0 0 0 0 0 0 0 0 0 0 0 0 0 0 0 0 0 0 0 0 0 0 0 0 0 0 0 0 0 0 0 0 0 0 0 0 0 0
0 0 0 0 0 0 0 0 0 0 0 0 0 0 0 0 0 0 0 0 0 0 0 0 0 0 0 0 0 0 0 0 0 0 0 0 0 0 0 0 0 0 0
0 0 0 0 0 0 0 0 0 0 0 0 0 0 0 0 0 0 0 0 0 0 0 0 0 0 0 0 0 0 0 0 0 0 0 0 0 0 0 0 0 0 0
0 0 0 0 0 0 0 0 0 0 0 0 0 0 0 0 0 0 0 0 0 0 0 0 0 0 0 0 0 -0 0 0 0 0 0 0 0 0 0 0 0 0 0
0 0 0 0 0 0 0 0 0 0 0 0 0 0 0 0 0 0 0 0 0 0 0 0 0 0 0 0 0 0 0 0 0 0 0 0 0 0 0 0 0 0 0
0 0 0 0 0 0 0 0 0 0 0 0 0 0 0 0 0 0 0 0 0 0 0 0 0 0 0 0 0 0 0 0 0 0 0 0 0 0 0 0 0 0 0
0 0 0 0 0 0 0 0 0 0 0 0 0 0 0 0 0 0 0 0 0 0 0 0 0 0 0 0 0 0 0 0 0 0 0 0 0 0 0 0 0 0 0
Wind_Speed
10 10 10 9 9 9 8 8 7 6 7 7 7 8 8 8 7 6 6 6 7 6 6 6 6 5 4 4 4 4 4 3 2 2 2 2 3 3 4 4 4 4 5
8 9 9 8 8 8 8 7 7 7 7 7 7 8 8 8 7 7 6 6 6 6 5 6 5 5 5 4 4 4 3 2 2 1 2 2 3 3 4 4 4 4 4
8 8 8 8 7 7 6 6 6 7 7 7 7 8 7 7 7 7 6 5 5 4 4 4 4 5 5 4 4 4 2 2 1 1 2 2 2 2 3 4 5 4 5
6 7 7 6 5 5 5 5 6 6 6 6 6 6 6 7 7 6 6 6 5 5 4 3 3 3 3 3 3 3 2 3 2 1 2 2 2 3 2 3 4 4 5
6 6 5 5 5 5 5 5 5 6 6 5 6 6 5 5 6 6 5 5 5 5 5 4 2 3 4 3 2 2 2 2 2 2 2 2 3 3 3 2 3 4 5
6 5 5 5 5 5 5 5 5 5 5 5 5 5 5 5 7 8 5 4 4 4 4 3 3 4 6 8 8 6 4 1 1 1 2 2 4 3 3 2 2 3 4
5 4 4 4 4 4 5 5 4 4 4 4 4 4 4 5 8 9 9 4 3 3 2 2 2 3 5 5 7 8 8 7 3 2 2 4 4 4 3 3 2 2 4
4 4 4 4 4 3 4 4 3 2 3 2 2 3 3 5 8 9 9 6 4 4 3 1 1 2 3 4 5 5 5 5 5 2 4 6 6 5 4 3 3 3 5
4 4 3 3 3 3 3 2 1 2 2 1 2 2 2 3 7 9 8 4 4 5 4 3 1 1 4 5 4 5 6 6 6 7 7 7 9 9 4 1 2 1 3
4 3 3 3 3 2 2 1 1 2 2 2 2 1 1 1 5 8 7 3 4 4 4 4 4 4 6 6 3 3 5 6 7 9 9 9 6 6 5 3 3 2 2
3 3 3 2 2 2 1 1 2 2 2 2 1 1 1 1 4 8 7 3 2 3 3 4 4 8 9 8 4 3 5 6 5 5 5 5 5 4 4 3 3 4 3
3 3 2 2 1 2 3 2 2 3 3 2 2 1 2 2 4 7 9 8 4 2 3 4 5 10 10 8 5 5 6 5 3 3 4 4 4 4 4 4 4 4 5
3 2 2 2 3 3 3 3 3 3 3 2 2 2 2 2 4 8 9 9 9 3 4 8 9 9 7 5 6 8 5 3 2 3 4 4 4 4 4 4 4 3 3
2 1 1 2 2 3 3 3 3 3 3 2 2 2 1 2 3 4 5 5 7 6 5 8 9 8 7 6 6 5 3 2 1 2 3 4 4 4 3 2 2 3 3
1 1 1 2 2 2 2 2 2 1 2 2 1 1 1 2 3 5 4 4 4 4 5 4 4 4 5 5 4 4 4 4 3 3 3 4 4 4 4 3 2 2 2
1 1 1 1 1 2 2 2 2 1 1 2 2 2 2 3 6 7 8 8 8 5 2 3 3 3 3 4 4 4 4 4 4 4 4 4 4 4 4 3 2 2 2
2 2 1 2 2 2 2 2 0 2 2 3 3 3 4 6 7 7 8 9 7 5 3 2 3 3 3 4 4 3 4 4 4 4 4 4 5 5 4 4 3 3 2
2 2 2 2 2 3 2 2 2 1 1 3 3 4 6 6 6 7 7 6 5 5 2 2 3 3 3 3 4 4 4 4 4 5 5 5 5 4 4 4 4 3 2
1 1 1 2 2 2 2 2 2 2 1 1 2 3 4 4 5 5 3 2 1 2 2 2 2 3 3 3 3 3 4 4 5 4 5 5 5 5 5 5 4 5 3
1 2 3 2 1 1 1 2 2 1 1 1 1 2 2 3 3 3 3 1 1 1 2 2 3 3 3 3 3 4 4 4 5 5 5 5 5 5 5 6 4 3 3
1 1 2 2 2 2 2 2 2 2 2 1 2 2 1 1 0 1 1 1 0 1 1 2 2 3 3 3 3 4 5 4 4 5 5 5 6 5 5 4 4 3 3
2 2 2 2 2 2 2 2 2 2 2 2 2 2 1 0 0 0 1 1 0 0 1 2 2 2 2 2 2 3 4 4 5 5 6 5 5 5 5 4 4 3 3
2 2 2 2 2 3 2 2 2 2 2 2 2 1 0 1 1 1 1 1 0 1 1 2 2 2 2 2 2 2 3 4 5 5 5 6 6 5 4 4 4 4 3
2 2 3 3 3 3 3 2 2 2 2 2 2 1 1 2 1 1 1 0 1 1 1 2 2 3 4 3 3 3 3 4 5 5 6 5 5 5 4 4 4 4 3
1 2 3 4 4 4 3 3 2 2 2 2 2 2 1 1 1 1 1 1 2 2 3 3 2 3 4 5 5 5 7 8 7 5 4 4 4 4 4 4 3 3 3
1 2 3 4 4 4 4 3 3 3 2 2 2 2 2 2 2 1 2 2 2 2 2 2 3 3 4 4 6 7 8 9 9 9 5 3 3 4 4 3 4 4 4
Wind_Direction
69 72 74 73 74 76 75 73 71 67 65 65 62 59 56 50 47 52 56 58 59 51 48 53 47 43 39 31 36 43 49 72 78 313 305 319 341 337 334 331 321 319 316
74 75 76 75 73 74 73 68 66 65 61 62 63 60 57 51 45 46 50 51 57 55 48 49 41 44 41 31 36 38 38 50 84 351 320 323 322 321 326 326 328 329 312
81 80 77 75 75 73 72 71 71 71 67 63 63 60 52 47 42 38 41 42 45 48 51 54 48 53 42 33 35 30 15 21 50 40 309 303 303 319 333 325 325 318 318
85 83 80 77 76 72 70 72 73 77 74 69 66 63 57 48 40 32 33 34 29 28 34 49 59 65 54 33 28 14 9 10 9 3 319 312 305 309 333 325 327 324 316
90 86 81 78 75 72 70 72 75 78 82 78 71 60 51 47 34 32 27 31 25 19 17 25 47 61 49 28 14 349 359 360 352 354 332 330 320 327 323 307 310 311 306
91 89 85 81 79 77 77 78 77 75 76 77 70 63 50 38 25 29 30 27 21 19 11 11 38 44 28 16 7 1 355 333 316 317 307 310 294 288 287 293 303 331 314
93 93 86 81 79 79 89 81 80 84 86 82 77 73 56 21 21 19 22 33 22 12 6 11 28 36 20 2 353 356 351 344 326 215 254 272 269 270 281 294 285 274 266
98 95 91 89 85 79 79 81 83 89 96 97 90 78 54 20 18 19 25 33 28 16 11 34 58 5 358 355 348 347 336 327 314 288 245 259 260 260 236 235 256 284 280
105 103 101 101 96 87 82 84 96 98 91 108 124 107 61 6 11 22 32 24 21 11 7 16 25 348 335 354 358 344 334 324 322 325 307 291 284 281 260 224 289 326 316
109 113 113 111 108 107 108 100 96 110 114 114 111 121 99 9 5 21 29 26 17 359 351 348 341 324 325 336 330 325 323 313 324 331 331 329 322 312 300 214 210 218 267
115 103 97 104 110 112 89 71 80 79 79 77 95 82 49 12 7 16 22 28 4 347 338 326 313 319 321 321 309 260 267 286 304 312 313 317 323 320 309 279 214 197 213
101 92 91 91 87 89 78 57 56 73 73 63 62 32 7 9 24 16 20 22 18 349 317 307 306 317 322 324 320 304 309 319 321 327 329 323 319 313 305 299 275 238 224
96 90 88 73 60 71 84 76 58 62 73 63 67 55 20 13 9 13 12 8 5 350 306 309 321 336 345 344 340 340 344 351 343 335 323 304 290 289 301 315 321 316 303
107 96 98 89 66 61 68 80 83 78 78 70 68 59 24 1 357 353 348 344 345 344 336 330 343 5 16 2 352 352 353 330 309 301 300 300 309 322 324 324 326 335 344
123 124 109 113 113 97 75 71 100 122 158 143 143 140 93 343 313 323 326 322 319 316 329 348 7 5 3 357 350 346 348 356 354 337 335 334 332 333 323 323 330 340 344
126 125 143 140 129 127 118 60 41 146 130 132 168 182 242 259 301 324 331 330 330 336 26 16 357 354 354 351 348 344 347 350 344 345 349 346 339 333 325 325 336 336 314
164 177 166 154 156 159 156 153 224 329 313 289 275 273 274 294 313 329 344 349 8 46 49 8 352 347 347 349 352 352 344 338 345 356 354 346 342 339 335 333 337 338 324
152 169 169 173 173 177 179 180 178 186 304 312 301 285 292 303 316 332 353 13 16 21 21 3 353 349 351 357 360 359 353 354 359 355 350 347 346 342 339 334 332 330 319
160 175 172 168 175 179 173 163 170 184 209 269 317 325 320 325 337 350 19 57 18 357 360 4 2 3 1 5 5 5 4 0 353 347 346 343 341 341 337 331 327 332 344
192 185 166 157 163 161 148 141 147 151 150 186 250 284 335 20 13 357 12 29 49 11 7 12 8 16 14 13 10 8 5 358 351 347 339 336 334 333 330 327 328 329 324
207 214 184 152 166 171 162 161 161 159 171 199 237 251 198 103 333 319 335 352 15 23 25 31 23 17 18 20 17 11 4 347 339 333 330 330 330 329 325 324 326 331 332
190 202 190 178 176 171 171 172 165 164 182 201 244 280 257 155 257 284 305 305 297 42 92 89 56 32 27 27 20 7 352 339 334 332 328 325 324 323 326 331 336 338 345
184 186 186 182 172 174 168 172 173 178 192 205 217 228 241 225 241 251 269 262 3 59 72 83 76 45 27 24 23 12 340 319 308 305 310 315 319 321 324 328 334 345 354
191 188 187 183 174 169 174 188 197 196 196 201 211 207 209 219 235 248 250 201 129 104 92 85 85 67 45 21 359 344 320 302 293 283 281 286 301 311 321 332 339 352 358
208 199 188 178 174 177 182 191 201 205 201 200 199 200 211 212 217 217 154 132 120 114 106 97 78 48 31 17 2 344 331 325 316 303 282 277 301 318 328 339 349 358 6
234 210 189 178 177 180 183 190 202 203 205 208 204 199 193 185 178 164 151 137 129 121 111 99 85 56 28 8 356 348 342 338 336 335 327 324 343 349 349 350 0 6 6